Location: Unnamed
(51.5169°N, 0.1311°W)
Time: 19:27:54
(UTC+01:00)

Tiros 1 - Pass Details

Date: 15 August 2024
Orbit: 623 x 655 km, 48.4° (Epoch: 16 September)

Event Time Altitude Azimuth Distance (km) Brightness Sun altitude
Rises 06:23:28 0° 251° (WSW) 2,972 9.8 4.5°
Reaches altitude 10° 06:25:51 10° 247° (WSW) 2,064 9.1 4.9°
Maximum altitude 06:30:30 55° 170° (S) 787 7.7 5.6°
Drops below altitude 10° 06:35:10 10° 93° (E) 2,066 11.5 6.3°
Sets 06:37:32 0° 89° (E) 2,976 12.5 6.6°
